COSMOS 2460 (732)

Last updated on Thu Mar 05 2026 00:03:33 GMT+0000 (Coordinated Universal Time)

1 36402U 10007C 26063.07006766 -.00000051 00000+0 00000+0 0 9997 2 36402 65.4801 318.0258 0001792 14.3302 8.4003 2.13106010124499
UTC large
Height (km)
Speed (km/s)
/
Latitude / Longitude
Inclination (degrees)
Orbital Period (minutes)
Azimuth
Elevation
Range (km)
Doppler Factor

Next 0 passes for location: London (51.5072 / 0.1276)

Sorry there are no passes over London.